EW9551 Weather Reports


time (UTC)temp
F
wind
direction
speed
knots
gust
knots
rain 1hr
in
rain 24hr
in
rain mn
in
humidity
%
barometer
mb
20260506153643 60 218 0.0 0.9 0.00 0.73 0.56 70 969.3
20260506150643 60 144 0.0 7.0 0.00 0.73 0.56 72 969.3
20260506143643 60 161 0.0 0.0 0.00 0.73 0.56 70 969.6
20260506140644 60 136 0.0 0.0 0.00 0.73 0.56 69 969.9
20260506133640 60 161 0.0 0.0 0.00 0.73 0.56 74 970.2
20260506130639 60 0 0.0 0.0 0.00 0.73 0.56 74 970.3
20260506123639 62 285 0.0 0.0 0.00 0.73 0.56 67 970.3
20260506120638 64 323 0.0 0.0 0.00 0.73 0.56 71 970.2
20260506113638 62 78 0.0 0.0 0.00 0.73 0.56 74 970.2
20260506110635 58 37 0.0 0.0 0.02 0.73 0.56 85 970.4
20260506103636 55 207 0.0 0.0 0.02 0.73 0.56 94 970.7
20260506100635 52 0 0.0 0.0 0.00 0.72 0.54 95 970.7
20260506093632 52 265 0.0 0.0 0.00 0.72 0.54 96 970.4
20260506090631 51 0 0.0 0.0 0.03 0.72 0.54 96 970.2
20260506083630 50 0 0.0 0.0 0.08 0.73 0.54 96 970.0
20260506082028 50 270 0.0 0.0 0.09 0.71 0.51 95 969.6
20260506070633 51 279 0.0 0.0 0.08 0.62 0.42 96 968.6
20260506062009 51 0 0.0 0.0 0.03 0.55 0.34 96 967.9
20260506050644 50 0 0.0 0.0 0.09 0.55 0.31 95 967.4
20260506043631 50 0 0.0 0.0 0.09 0.52 0.27 95 967.3
20260506040633 50 0 0.0 0.0 0.09 0.47 0.22 95 967.2
20260506033632 50 0 0.0 0.0 0.07 0.44 0.17 95 967.3
20260506030630 50 0 0.0 0.0 0.08 0.43 0.13 95 967.5
20260506023629 51 161 0.0 0.0 0.07 0.41 0.09 95 967.6
20260506020629 51 140 0.0 0.0 0.04 0.39 0.06 95 967.6
20260506013625 51 139 0.0 0.0 0.02 0.38 0.03 95 967.8
20260506010626 51 135 0.0 0.0 0.00 0.39 0.02 95 968.3
20260506005006 51 132 0.0 0.0 0.01 0.45 0.02 94 968.3
20260506002008 51 133 0.0 0.0 0.01 0.46 0.01 94 969.0
20260505233622 51 133 0.0 0.0 0.01 0.48 0.00 94 969.3
20260505230621 51 132 0.0 0.0 0.00 0.49 0.00 94 969.5
20260505223618 51 0 0.0 0.0 0.00 0.54 0.00 93 969.5
20260505220619 51 143 0.0 0.0 0.04 0.57 0.00 92 969.9
20260505213619 51 242 0.0 0.0 0.06 0.64 0.58 92 970.2
20260505210619 51 0 0.0 0.9 0.04 0.64 0.55 91 971.0
20260505203620 52 0 0.0 5.2 0.08 0.63 0.53 90 970.6
20260505200616 52 0 0.0 10.4 0.09 0.62 0.50 88 969.7
20260505193618 54 0 0.9 18.2 0.03 0.56 0.44 85 969.5
20260505190614 56 0 0.0 8.7 0.00 0.53 0.42 85 968.4
20260505183615 57 271 0.0 4.3 0.00 0.53 0.42 84 968.3
20260505182001 58 0 0.0 0.9 0.00 0.53 0.42 84 968.0
20260505173616 58 0 0.0 0.0 0.00 0.53 0.42 84 968.4
20260505170614 59 0 0.0 0.0 0.00 0.54 0.42 83 968.2
20260505163615 60 0 0.0 0.0 0.00 0.55 0.42 81 968.6
20260505160615 61 232 0.0 0.0 0.00 0.56 0.42 79 968.8